Weather History for KINK - January, 2013

Change the Weather History Date:

Thursday, January 3, 2013

  Actual Average Record
Temperature  
Mean Temperature 32 °F -  
Max Temperature 35 °F 54 °F 88 °F (2006)
Min Temperature 28 °F 26 °F 8 °F (1983)
Degree Days  
Heating Degree Days 34    
Moisture  
Dew Point 28 °F    
Average Humidity 87    
Maximum Humidity 100    
Minimum Humidity 61    
Precipitation  
Precipitation 0.11 in - - ()
Sea Level Pressure  
Sea Level Pressure 30.38 in    
Wind  
Wind Speed 7 mph (ENE)    
Max Wind Speed 12 mph    
Max Gust Speed -    
Visibility 4 miles    
Events Fog , Snow    
Averages and records for this station are not official NWS values.
T = Trace of Precipitation, MM = Missing Value Source: NWS Daily Summary

Daily Weather History Graph

Daily Weather History Graph

Search for Another Location

Airport or City:

Trip Planner

Search our weather history database for the weather conditions in past years. The results will help you decide how hot, cold, wet, or windy it might be!

Date:

Astronomy

Jan. 03, 2013 Rise Set
Actual Time 7:53 AM CST 6:01 PM CST
Civil Twilight 7:26 AM CST 6:28 PM CST
Nautical Twilight 6:56 AM CST 6:58 PM CST
Astronomical Twilight 6:26 AM CST 7:28 PM CST
Moon No Moon Rise 11:29 AM CST (1/3)
Length of Visible Light 11h 02m
Length of Day
10h 08m
Waning Gibbous, 65% of the Moon is Illuminated
Jan 3
Waning Gibbous
Jan 4
Last Quarter
Jan 11
New
Jan 18
First Quarter
Jan 26
Full

Hourly Weather History & Observations

Time (CST) Temp. Windchill Dew Point Humidity Pressure Visibility Wind Dir Wind Speed Gust Speed Precip Events Conditions
12:53 AM 28.9 °F 23.9 °F 21.0 °F 72% 30.25 in 10.0 mi ENE 4.6 mph - N/A   Clear
1:53 AM 30.9 °F 23.5 °F 21.9 °F 69% 30.25 in 10.0 mi East 8.1 mph - N/A   Clear
2:53 AM 30.0 °F 24.1 °F 21.9 °F 72% 30.26 in 10.0 mi East 5.8 mph - N/A   Clear
3:53 AM 28.9 °F 22.8 °F 21.9 °F 75% 30.28 in 10.0 mi ENE 5.8 mph - N/A   Clear
4:53 AM 30.0 °F 24.1 °F 21.9 °F 72% 30.28 in 10.0 mi ENE 5.8 mph - N/A   Clear
5:53 AM 33.1 °F 24.9 °F 23.0 °F 66% 30.29 in 10.0 mi NE 10.4 mph - N/A   Mostly Cloudy
6:53 AM 34.0 °F 28.0 °F 24.1 °F 67% 30.32 in 10.0 mi ENE 6.9 mph - N/A   Overcast
7:53 AM 34.0 °F 28.0 °F 24.1 °F 67% 30.35 in 10.0 mi ENE 6.9 mph - N/A   Overcast
8:53 AM 35.1 °F 28.6 °F 23.0 °F 61% 30.38 in 10.0 mi East 8.1 mph - N/A   Overcast
9:07 AM 33.8 °F 25.8 °F 23.0 °F 65% 30.38 in 4.0 mi East 10.4 mph - 0.00 in Snow Light Snow
9:11 AM 33.8 °F 25.3 °F 24.8 °F 70% 30.39 in 1.8 mi ENE 11.5 mph - 0.00 in Snow Light Snow
9:21 AM 32.0 °F 23.6 °F 26.6 °F 80% 30.38 in 0.5 mi ENE 10.4 mph - 0.00 in Snow Snow
9:30 AM 30.2 °F 21.3 °F 28.4 °F 93% 30.38 in 1.0 mi ENE 10.4 mph - 0.00 in Snow Light Snow
9:37 AM 30.2 °F 22.6 °F 28.4 °F 93% 30.39 in 3.0 mi ENE 8.1 mph - 0.00 in Snow Light Snow
9:45 AM 30.2 °F 22.6 °F 28.4 °F 93% 30.39 in 7.0 mi ENE 8.1 mph - 0.00 in   Overcast
9:53 AM 30.9 °F 23.5 °F 28.0 °F 89% 30.42 in 10.0 mi ENE 8.1 mph - 0.00 in   Overcast
10:53 AM 33.1 °F 26.9 °F 28.9 °F 85% 30.45 in 9.0 mi NE 6.9 mph - 0.00 in   Overcast
11:04 AM 32.0 °F 24.2 °F 28.4 °F 87% 30.43 in 1.8 mi NE 9.2 mph - 0.00 in Snow Light Snow
11:12 AM 32.0 °F 24.2 °F 28.4 °F 87% 30.43 in 3.0 mi ENE 9.2 mph - 0.00 in Snow Light Snow
11:42 AM 33.8 °F 25.8 °F 28.4 °F 81% 30.42 in 2.5 mi East 10.4 mph - 0.00 in Snow Light Snow
11:53 AM 32.0 °F 25.6 °F 28.0 °F 85% 30.44 in 1.8 mi East 6.9 mph - 0.00 in Snow Light Snow
12:05 PM 32.0 °F 26.4 °F 28.4 °F 87% 30.42 in 2.5 mi East 5.8 mph - 0.00 in Snow Light Snow
12:14 PM 33.8 °F 29.6 °F 28.4 °F 81% 30.41 in 4.0 mi East 4.6 mph - 0.00 in Snow Light Snow
12:19 PM 33.8 °F 27.7 °F 28.4 °F 81% 30.41 in 2.0 mi East 6.9 mph - 0.00 in Snow Light Snow
12:24 PM 32.0 °F 26.4 °F 28.4 °F 87% 30.41 in 0.8 mi East 5.8 mph - 0.00 in Snow Light Snow
12:36 PM 32.0 °F 28.7 °F 28.4 °F 87% 30.41 in 0.8 mi East 3.5 mph - 0.01 in Snow Light Snow
12:46 PM 32.0 °F 27.5 °F 28.4 °F 87% 30.41 in 1.2 mi East 4.6 mph - 0.01 in Snow Light Snow
12:53 PM 32.0 °F 27.5 °F 28.9 °F 88% 30.43 in 1.2 mi ENE 4.6 mph - 0.01 in Snow Light Snow
1:07 PM 30.2 °F 24.3 °F 28.4 °F 93% 30.39 in 0.5 mi East 5.8 mph - 0.00 in Fog , Snow Snow
1:16 PM 30.2 °F 24.3 °F 30.2 °F 100% 30.39 in 0.2 mi East 5.8 mph - 0.01 in Fog , Snow Heavy Snow
1:25 PM 30.2 °F 23.4 °F 30.2 °F 100% 30.38 in 0.5 mi ENE 6.9 mph - 0.02 in Fog , Snow Snow
1:37 PM 32.0 °F 25.6 °F 30.2 °F 93% 30.38 in 0.8 mi ENE 6.9 mph - 0.02 in Snow Light Snow
1:39 PM 32.0 °F 25.6 °F 30.2 °F 93% 30.37 in 1.0 mi ENE 6.9 mph - 0.02 in Snow Light Snow
1:53 PM 32.0 °F 25.6 °F 30.0 °F 92% 30.40 in 1.2 mi ENE 6.9 mph - 0.02 in Snow Light Snow
2:04 PM 32.0 °F 24.2 °F 30.2 °F 93% 30.36 in 2.0 mi ENE 9.2 mph - 0.00 in Snow Light Snow
2:09 PM 32.0 °F 24.8 °F 30.2 °F 93% 30.36 in 2.5 mi ENE 8.1 mph - 0.00 in Snow Light Snow
2:17 PM 33.8 °F 25.3 °F 30.2 °F 87% 30.36 in 4.0 mi ENE 11.5 mph - 0.00 in Snow Light Snow
2:53 PM 34.0 °F 26.6 °F 30.9 °F 89% 30.37 in 9.0 mi ENE 9.2 mph - 0.00 in   Overcast
3:26 PM 33.8 °F 26.4 °F 28.4 °F 81% 30.35 in 10.0 mi East 9.2 mph - N/A   Overcast
3:53 PM 34.0 °F 26.0 °F 28.0 °F 79% 30.38 in 10.0 mi ENE 10.4 mph - N/A   Overcast
4:53 PM 34.0 °F 28.0 °F 28.0 °F 79% 30.38 in 10.0 mi ENE 6.9 mph - N/A   Overcast
5:45 PM 33.8 °F 26.4 °F 28.4 °F 81% 30.35 in 1.8 mi ENE 9.2 mph - 0.00 in Snow Light Snow
5:53 PM 33.1 °F 26.1 °F 28.9 °F 85% 30.37 in 1.2 mi ENE 8.1 mph - 0.00 in Snow Light Snow
6:04 PM 32.0 °F 24.8 °F 28.4 °F 87% 30.35 in 1.5 mi ENE 8.1 mph - 0.00 in Snow Light Snow
6:46 PM 30.2 °F 22.6 °F 28.4 °F 93% 30.38 in 2.0 mi ENE 8.1 mph - 0.01 in Snow Light Snow
6:53 PM 30.9 °F 22.2 °F 28.9 °F 92% 30.40 in 3.0 mi ENE 10.4 mph - 0.01 in Snow Light Snow
7:43 PM 30.2 °F 21.9 °F 28.4 °F 93% 30.39 in 2.5 mi NNE 9.2 mph - 0.00 in Snow Light Snow
7:51 PM 30.2 °F 21.9 °F 28.4 °F 93% 30.40 in 1.2 mi NNE 9.2 mph - 0.00 in Snow Light Snow
7:53 PM 30.9 °F 22.8 °F 28.9 °F 92% 30.42 in 1.2 mi NNE 9.2 mph - 0.00 in Snow Light Snow
8:10 PM 30.2 °F 22.6 °F 28.4 °F 93% 30.40 in 1.0 mi NE 8.1 mph - 0.00 in Snow Light Snow
8:24 PM 30.2 °F 22.6 °F 28.4 °F 93% 30.40 in 1.0 mi NE 8.1 mph - 0.00 in Snow Light Snow
8:39 PM 30.2 °F 22.6 °F 28.4 °F 93% 30.40 in 0.8 mi NE 8.1 mph - 0.01 in Snow Light Snow
8:53 PM 30.0 °F 23.2 °F 28.9 °F 96% 30.42 in 0.8 mi ENE 6.9 mph - 0.02 in Snow Light Snow
9:03 PM 30.2 °F 21.9 °F 28.4 °F 93% 30.39 in 1.2 mi ENE 9.2 mph - 0.00 in Snow Light Snow
9:10 PM 30.2 °F 22.6 °F 28.4 °F 93% 30.40 in 1.8 mi ENE 8.1 mph - 0.00 in Snow Light Snow
9:15 PM 30.2 °F 23.4 °F 28.4 °F 93% 30.40 in 2.5 mi ENE 6.9 mph - 0.00 in Snow Light Snow
9:23 PM 30.2 °F 23.4 °F 28.4 °F 93% 30.39 in 4.0 mi ENE 6.9 mph - 0.00 in Snow Light Snow
9:49 PM 30.2 °F 24.3 °F 28.4 °F 93% 30.39 in 2.5 mi NE 5.8 mph - 0.00 in Snow Light Snow
9:53 PM 30.0 °F 25.2 °F 28.9 °F 96% 30.43 in 1.8 mi NE 4.6 mph - 0.01 in Snow Light Snow
10:11 PM 30.2 °F 24.3 °F 28.4 °F 93% 30.39 in 1.0 mi NE 5.8 mph - 0.00 in Snow Light Snow
10:19 PM 30.2 °F 24.3 °F 28.4 °F 93% 30.39 in 1.2 mi NE 5.8 mph - 0.00 in Snow Light Snow
10:41 PM 30.2 °F 25.4 °F 28.4 °F 93% 30.40 in 1.8 mi NE 4.6 mph - 0.01 in Snow Light Snow
10:53 PM 30.0 °F 26.5 °F 28.9 °F 96% 30.44 in 1.8 mi NE 3.5 mph - 0.01 in Snow Light Snow
11:01 PM 30.2 °F 26.7 °F 28.4 °F 93% 30.42 in 2.5 mi NE 3.5 mph - 0.00 in Snow Light Snow
11:05 PM 30.2 °F - 28.4 °F 93% 30.42 in 3.0 mi Calm Calm - 0.00 in Snow Light Snow
11:16 PM 30.2 °F 26.7 °F 28.4 °F 93% 30.42 in 2.0 mi NE 3.5 mph - 0.00 in Snow Light Snow
11:25 PM 30.2 °F 24.3 °F 28.4 °F 93% 30.40 in 1.0 mi ENE 5.8 mph - 0.00 in Snow Light Snow
11:30 PM 30.2 °F 25.4 °F 28.4 °F 93% 30.41 in 0.8 mi ENE 4.6 mph - 0.01 in Snow Light Snow
11:53 PM 30.0 °F - 30.0 °F 100% 30.44 in 0.8 mi Calm Calm - 0.03 in Snow Light Snow